286  
ASUS46 KSTO 201015  
RWRCA  
 
NORTHERN AND CENTRAL CA REGIONAL WEATHER ROUNDUP  
NATIONAL WEATHER SERVICE SACRAMENTO CA  
300 AM PDT THU JUN 20 2024  
 
NOTE: FAIR INDICATES FEW OR NO CLOUDS BELOW 12,000 FEET WITH NO  
SIGNIFICANT WEATHER AND/OR S TO VISIBILITY
.  
 
CAZ001-003-201100-  
NORTHWEST AREA  
 
CITY SKY/WX TMP DP RH WIND PRES REMARKS
 
CRESCENT CITY CLOUDY 52 51 97 SE3 29.94F  
UKIAH CLEAR 55 42 61 CALM 29.85F  

 
 
CAZ006-505>513-201100-  
BAY AREA  
 
CITY SKY/WX TMP DP RH WIND PRES REMARKS
 
SANTA ROSA CLOUDY 50 49 96 CALM 29.87F  
SAN RAFAEL N/A 48 MM MM MISG  
NAPA CLOUDY 51 48 89 NW7 29.88F  
CONCORD CLEAR 53 48 83 S13 29.86F  
OAKLAND CITY N/A 53 MM MM MISG  
OAKLAND MOCLDY 55 50 83 VRB5G17 29.90F  
SAN FRAN CITY N/A 51 MM 94 MISG  
SAN FRAN ARPT CLOUDY 52 48 86 W7 29.90F  
LIVERMORE MOCLDY 52 48 86 NW7 29.88F  
HAYWARD CLOUDY 55 48 77 W9 29.90F  
REDWOOD CITY N/A 52 MM 84 MISG  
MOFFETT ARPT CLOUDY 54 50 87 VRB3 29.90S  
SAN JOSE ARPT CLOUDY 58 49 72 N3 29.89F  

 
CAZ034-037-514>518-201100-  
CENTRAL COAST  
 
CITY SKY/WX TMP DP RH WIND PRES REMARKS
 
WATSONVILLE CLOUDY 53 49 86 CALM 29.90F  
SALINAS CLOUDY 54 49 83 NW5 29.90F  
MONTEREY CLOUDY 53 49 86 W6 29.91F  
SAN LUIS OBISP CLOUDY 55 48 77 W3 29.88F  
SANTA MARIA CLOUDY 50 50 100 W5 29.88F  
HALF MOON BAY CLOUDY 52 52 100 CALM 29.91F FOG  

 
CAZ015-016-201100-  
NORTHERN SACRAMENTO VALLEY  
 
CITY SKY/WX TMP DP RH WIND PRES REMARKS
 
REDDING CLEAR 63 39 41 NW3 29.81S  
RED BLUFF CLEAR 60 41 49 NW7 29.81S  
OROVILLE CLEAR 64 49 57 S7 29.82S  

 
CAZ016>018-201100-  
SOUTHERN SACRAMENTO VALLEY  
 
CITY SKY/WX TMP DP RH WIND PRES REMARKS
 
AUBURN CLEAR 64 39 39 E7 29.85F  
BEALE AFB CLEAR 58 46 62 S6 29.80R  
LINCOLN CLEAR 59 46 63 S10 29.80S  
MARYSVILLE CLEAR 60 49 66 S9 29.81S  
SAC INTL ARPT CLEAR 57 48 72 S9 29.81S  
MATHER AIRPORT CLEAR 54 48 82 S7 29.81S  
DOWNTOWN SAC N/A 56 MM MM MISG  
SAC EXEC ARPT CLEAR 54 50 86 S7 29.82F  
VACAVILLE CLEAR 57 47 69 SW8 29.81S  
TRAVIS AFB CLEAR 53 49 86 SW26 29.79F  

 
CAZ019>021-201100-  
SAN JOAQUIN VALLEY  
 
CITY SKY/WX TMP DP RH WIND PRES REMARKS
 
STOCKTON CLEAR 55 46 71 NW3 29.82F  
MODESTO CLEAR 60 45 57 NW8 29.81F  
MERCED CLEAR 62 43 49 NW5 29.80S  
LEMOORE CLEAR 63 46 54 NW13 29.80F  
FRESNO CLEAR 67 43 41 NW10 29.80S  
HANFORD CLEAR 68 41 37 NW10 29.80F  
PORTERVILLE CLEAR 59 45 59 S5 29.81S  
BAKERSFIELD CLEAR 69 41 36 CALM 29.80F  

 
CAZ011-012-071-201100-  
NORTHERN MOUNTAINS  
 
CITY SKY/WX TMP DP RH WIND PRES REMARKS
 
YREKA PTCLDY 54 37 52 CALM 29.95R  
ALTURAS CLEAR 42 26 53 CALM 30.00S  

 
CAZ011-012-071-201100-  
SIERRA NEVADA MTNS  
 
CITY SKY/WX TMP DP RH WIND PRES REMARKS
 
BLUE CANYON CLEAR 62 25 24 N7 30.02F  
TRUCKEE CLEAR 39 36 87 CALM 30.08S  
TAHOE VLY ARPT CLEAR 41 35 79 S3 30.07S  
MAMMOTH LAKES CLEAR 46 21 37 CALM 30.10S  

 
 
 
CLICK HERE TO GO TO PREVIOUS BULLETINS.

The Nexlab CA Page Main Text Page